This is the latest recevied weather packets stored in our database for station/object K9VSK-9. If no packets are shown the sender has not sent any weather packets the latest 10 day(s).
| Time | Temp. | Humidity | Pressure | Rain* | Wind** | Luminosity | Snow |
|---|---|---|---|---|---|---|---|
| 1777488366 | 13.33° C | 60% | 1016.3 hPa | 0 mm | - | - | - |
| 1777488066 | 13.33° C | 59% | 1016.3 hPa | 0 mm | - | - | - |
| 1777487766 | 13.89° C | 62% | 1016.2 hPa | 0 mm | - | - | - |
| 1777487466 | 13.89° C | 63% | 1016.2 hPa | 0 mm | - | - | - |
| 1777487165 | 13.33° C | 65% | 1016.1 hPa | 0 mm | - | - | - |
| 1777486865 | 13.33° C | 63% | 1016.2 hPa | 0 mm | - | - | - |
| 1777486565 | 13.33° C | 60% | 1016.3 hPa | 0 mm | - | - | - |
| 1777486265 | 13.89° C | 64% | 1016.3 hPa | 0 mm | - | - | - |
| 1777485964 | 14.44° C | 63% | 1016.3 hPa | 0 mm | - | - | - |
| 1777485664 | 14.44° C | 69% | 1016.3 hPa | 0 mm | - | - | - |
| 1777485364 | 13.89° C | 68% | 1016.4 hPa | 0 mm | - | - | - |
| 1777485063 | 13.33° C | 70% | 1016.4 hPa | 0 mm | - | - | - |
| 1777484763 | 13.89° C | 66% | 1016.4 hPa | 0 mm | - | - | - |
| 1777484463 | 13.33° C | 67% | 1016.4 hPa | 0 mm | - | - | - |
| 1777484163 | 13.33° C | 69% | 1016.4 hPa | 0 mm | - | - | - |
| 1777483862 | 13.33° C | 67% | 1016.4 hPa | 0 mm | - | - | - |
| 1777483562 | 13.33° C | 67% | 1016.4 hPa | 0 mm | - | - | - |
| 1777483262 | 13.33° C | 70% | 1016.3 hPa | 0 mm | - | - | - |
| 1777482961 | 13.33° C | 70% | 1016.4 hPa | 0 mm | - | - | - |
| 1777482661 | 12.78° C | 68% | 1016.4 hPa | 0 mm | - | - | - |
| 1777482361 | 12.78° C | 69% | 1016.3 hPa | 0 mm | - | - | - |
| 1777482060 | 12.78° C | 70% | 1016.3 hPa | 0 mm | - | - | - |
| 1777481760 | 12.78° C | 71% | 1016.4 hPa | 0 mm | - | - | - |
| 1777481460 | 12.78° C | 70% | 1016.3 hPa | 0 mm | - | - | - |
| 1777481160 | 13.33° C | 71% | 1016.4 hPa | 0 mm | - | - | - |
* Rain latest hour (hover to see other rain measurements)
** Current wind speed in m/s (hover to see current wind gust speed)